Starlink 35713

operational
NORAD ID: 66279 Int'l Des: 2025-247 Owner: SPXS Country: US Constellation: starlink
NOTLE

Starlink 35713について

説明を読み込み中...

リアルタイム位置

3D地球を読み込み中...

次回通過

高度履歴

Altitude vs Time

uPlot chart will show altitude changes over time

軌道要素

1 66279C 25247P 25305.06506944 .00477910 00000+0 71782-3 0 3055
2 66279 53.1566 79.7673 0008826 259.9688 311.1473 16.03399580 13
Epoch: Nov 1, 2025 • Age: 52 hours

現在のステータス

高度 260.0 km
速度 7.75 km/s
衛星直下点 -1.55°S, 143.23°E
打ち上げ日 Oct 31, 2025
運用期間 2 days
タイプ internet

技術仕様

分類 Payload
質量 575.00 kg
乾燥質量 530.00 kg
総質量 575.00 kg
長さ 0.30 m
直径 4.10 m
スパン 29.00 m
形状 Box + pan
製造者 SPXS
バスタイプ Starlink V2MO
フェーズステータス In Orbit
所有者/国 SPXS/US

大規模コンステレーション

Loading constellations...